User: anonymous   Login
Location: Theydon Bois
(51.6750°N, 0.1050°E)
Time: 19:40:00
(UTC+00:00)
Language:

COSMO-SKYMED 1 - Orbit

View from above orbital plane
View from above orbital plane
View from above satellite
View from above satellite

Ground track
Ground track

The orbit data is extracted from the following two-line orbital elements,

1 31598U 07023A   18051.20735896  .00000087  00000-0  17498-4 0  9991
2 31598  97.8883 236.3836 0001434  92.3144 267.8221 14.82150722579187
Epoch (UTC): 20 February 2018 04:58:35
Eccentricity: 0.0001434
inclination: 97.8883°
perigee height: 621 km
apogee height: 623 km
right ascension of ascending node: 236.3836°
argument of perigee: 92.3144°
revolutions per day: 14.82150722
mean anomaly at epoch: 267.8221°
orbit number at epoch: 57918

The dashed part of the orbit path shows where the satellite is in the earth's shadow,  

DLR